Regional Weather Roundup
Issued by NWS Lake Charles, LA

Home | Current Version | Previous Version | Text Only | Print | Product List | Glossary On
Versions: 1 2 3 4 5 6 7 8 9 10 11 12 13 14 15 16 17 18 19 20 21 22 23 24 25 26 27
000
ASUS44 KLCH 031910
RWRLCH
REGIONAL WEATHER ROUNDUP
NATIONAL WEATHER SERVICE LAKE CHARLES LA
100 PM CST SAT DEC 03 2016

Note: "fair" indicates few or no clouds below 12,000 feet with no
significant weather and/or obstructions to visibility.


ACROSS SOUTHEAST TEXAS

CITY           SKY/WX    TMP DP  RH WIND       PRES   REMARKS
BEAUMONT       RAIN      55  53  93 N18       29.88F FOG
BEAUMONT CITY  HVY RAIN  53  51  94 NE9G20    29.91F
ORANGE         HVY RAIN N/A N/A N/A N12       29.94F
JASPER         CLOUDY    50  49  95 NE13      29.98F
$$

ACROSS CENTRAL LOUISIANA

CITY           SKY/WX    TMP DP  RH WIND       PRES   REMARKS
LEESVILLE      RAIN      48  48 100 NE10      29.98F FOG
FULLERTON      RAIN      49  48  97 VRB7      29.97F FOG
ALEXANDRIA INT HVY RAIN  48  47  96 NE9       30.01S FOG
ESLER FIELD    HVY RAIN  48  48 100 E12G18    30.02F FOG
DERIDDER       HVY RAIN  49  48  95 N7        29.99F
OAKDALE        RAIN      52  50  95 NE7       29.96F
OPELOUSAS      CLOUDY    52  48  87 E14       29.96F
$$

ACROSS SOUTHWEST AND SOUTH CENTRAL LOUISIANA

CITY           SKY/WX    TMP DP  RH WIND       PRES   REMARKS
SULPHUR        HVY RAIN  57  55  95 N13       29.91R
LAKE CHARLES   LGT RAIN  56  55  97 E13       29.89F
CHENNAULT INT  NOT AVBL
CAMERON PHI    PTCLDY    63  61  94 SE21G30   29.85F FOG
DEQUINCY       RAIN      52  52  99 NW12      29.98R
JENNINGS       LGT RAIN  54  52  94 E17       29.90F
LAFAYETTE      CLOUDY    59  52  77 VRB6      29.95F
NEW IBERIA     CLOUDY    64  53  67 E13       29.95F
ABBEVILLE      CLOUDY    63  57  82 NE5       29.93F
PATTERSON      CLOUDY   N/A N/A N/A E16       29.96F
SALT POINT     NOT AVBL
$$

SELECTED SITES ACROSS THE REGION

CITY           SKY/WX    TMP DP  RH WIND       PRES   REMARKS
HOUSTON BUSH   CLOUDY    54  52  93 NE10      29.89
HOUSTON HOBBY  CLOUDY    57  54  89 NE14      29.87F
GALVESTON      LGT RAIN  61  60  97 N16       29.85F
COLLEGE STAT   LGT RAIN  51  49  92 NE9       29.96F
CONROE         LGT RAIN  51  50  96 VRB6      29.93R
HUNTSVILLE     CLOUDY    50  47  89 NE6       29.94F
LUFKIN         LGT RAIN  49  47  93 E14G26    29.94F FOG
SHREVEPORT     RAIN      49  49 100 E17G25    30.02F FOG
MONROE         HVY RAIN  49  47  93 NE12G21   30.15F FOG
NATCHEZ MS     CLOUDY    48  43  81 NE12G20   30.04F
BATON ROUGE    CLOUDY    55  46  71 E15G23    29.99F
N.O. INTL ARPT CLOUDY    63  52  67 E15G22    30.03F
SLIDELL        CLOUDY    62  46  55 E8        30.05F
$$

MARINE REPORTS

STATION/POSITION TIME  SKY/WX   TEMP    WIND        PRES    VSBY
                                AIR SEA DIR/SP/G
                 (UTC)          (F)     (DEG/KT/KT) (MB)    (MI)
BUOY 30 S HIGH I 1850            73 68  170/ 16/ 19 1009.5F
WVE H/P(F/S)=  7/ 8

SEA RIM ST PARK  1900                   350/ 21/ 25 1012.0R
PORT ARTHUR      1842               63   10/ 21/ 28 1012.0F
SABINE PASS N    1842               64   10/  7/  8 1012.2F
TEXAS POINT      NOT AVBL
CALCASIEU PASS   1848            63 62  130/ 25/ 34   N/A
LK CHARLES BEACH 1848            55                 1012.9F
MARSH ISLAND     1800            62                   N/A
FRESH WATER LOCK 1848            64 61   90/ 14/ 23 1013.0F
AMERADA PASS     1836            64 61   80/ 11/ 18 1014.3F
$$




USA.gov is the U.S. government's official web portal to all federal, state and local government web resources and services.